Location: Dana
(41.8364°N, 106.7042°W)
Time: 01:59:55
(UTC+00:00)

Transit 4A - Pass Details

Date: 18 May 2026
Orbit: 860 x 980 km, 66.8° (Epoch: 6 June)

Event Time Altitude Azimuth Distance (km) Brightness Sun altitude
Rises 14:13:50 0° 207° (SSW) 3,531 10.6 25.9°
Reaches altitude 10° 14:16:18 10° 207° (SSW) 2,611 10.0 26.4°
Maximum altitude 14:22:24 88° 120° (ESE) 950 8.5 27.5°
Drops below altitude 10° 14:28:44 10° 31° (NNE) 2,705 10.9 28.7°
Sets 14:31:20 0° 31° (NNE) 3,667 11.4 29.2°
